M I D A S
Marine Information and Data Acquisition System
Tripno 655 of the Zeeleeuw from 2004-02-25 07:30:40 to 2004-02-25 11:38:24
Back to CruiseResearch ActivitiesStationsMapUnderway DataData graphs

EquipmentUnitsComment
TimeDGPSUTC
LatitudeDGPSDM.mWGS84
LongitudeDGPSDM.mWGS84
HeadingGyrodeg 
SOGDGPSknotsSpeed over ground
COGDGPSdegCourse over ground
DepthEcho soundermeters200 kHz
Missing or incorrect values are displayed as -999
Navigation data collected by the RV Zeeleeuw from 2004-02-25 07:30:40 to 2004-02-25 11:38:24
                                                                                    Next 1000 lines
Time Latitude Longitude Heading SOG COG Depth
2004-02-25 07:30:48 51°13.593 2°56.107 115.9 0.1 232 7.4
2004-02-25 07:30:54 51°13.593 2°56.106 115.2 0.5 289 7.5
2004-02-25 07:30:59 51°13.594 2°56.104 114.9 0.8 287 5.6
2004-02-25 07:31:04 51°13.594 2°56.101 115.1 1.2 289 7.5
2004-02-25 07:31:08 51°13.595 2°56.098 115.8 1.7 293 7.5
2004-02-25 07:31:14 51°13.597 2°56.093 116.4 1.8 293 5.5
2004-02-25 07:31:20 51°13.598 2°56.087 117.6 2.3 296 -999
2004-02-25 07:31:24 51°13.6 2°56.083 118.4 2.6 296 -999
2004-02-25 07:31:30 51°13.602 2°56.076 118.7 2.9 296 -999
2004-02-25 07:31:34 51°13.603 2°56.071 118.8 3.1 297 -999
2004-02-25 07:31:40 51°13.606 2°56.063 119.4 3.3 295 -999
2004-02-25 07:31:44 51°13.608 2°56.057 120.1 3.4 295 -999
2004-02-25 07:31:50 51°13.61 2°56.048 120.4 3.6 296 -999
2004-02-25 07:31:54 51°13.612 2°56.042 121.5 3.9 298 -999
2004-02-25 07:32:00 51°13.616 2°56.032 122.3 4.1 298 -999
2004-02-25 07:32:04 51°13.618 2°56.026 123.5 4.2 299 -999
2004-02-25 07:32:10 51°13.622 2°56.016 124.3 4.3 302 -999
2004-02-25 07:32:14 51°13.624 2°56.009 124.9 4.4 303 -999
2004-02-25 07:32:20 51°13.628 2°55.999 125.2 4.5 303 -999
2004-02-25 07:32:24 51°13.631 2°55.992 125.3 4.6 303 -999
2004-02-25 07:32:30 51°13.635 2°55.982 125.3 4.6 302 -999
2004-02-25 07:32:34 51°13.638 2°55.975 124.9 4.7 302 -999
2004-02-25 07:32:40 51°13.642 2°55.964 124.1 4.8 302 -999
2004-02-25 07:32:44 51°13.645 2°55.956 123.2 4.8 301 -999
2004-02-25 07:32:50 51°13.648 2°55.945 122.4 4.8 300 -999
2004-02-25 07:32:55 51°13.652 2°55.936 121.6 4.9 299 -999
2004-02-25 07:33:00 51°13.655 2°55.926 120.5 4.9 299 -999
2004-02-25 07:33:04 51°13.657 2°55.918 119.5 4.9 298 -999
2004-02-25 07:33:10 51°13.661 2°55.907 118.5 4.9 298 -999
2004-02-25 07:33:14 51°13.663 2°55.899 117.6 5 296 -999
2004-02-25 07:33:20 51°13.667 2°55.887 116.1 5 295 -999
2004-02-25 07:33:24 51°13.669 2°55.878 114.9 5 294 -999
2004-02-25 07:33:30 51°13.672 2°55.866 113.6 5 292 -999
2004-02-25 07:33:34 51°13.674 2°55.858 112.4 5 291 -999
2004-02-25 07:33:40 51°13.677 2°55.846 111.1 5 291 -999
2004-02-25 07:33:44 51°13.679 2°55.838 110.3 4.9 290 -999
2004-02-25 07:33:50 51°13.681 2°55.825 108.9 4.9 290 -999
2004-02-25 07:33:55 51°13.683 2°55.815 107.4 4.9 287 -999
2004-02-25 07:34:00 51°13.685 2°55.805 105.7 4.9 285 -999
2004-02-25 07:34:04 51°13.686 2°55.796 104.1 4.9 284 -999
2004-02-25 07:34:10 51°13.688 2°55.784 102.5 4.9 283 -999
2004-02-25 07:34:15 51°13.689 2°55.773 101.2 4.8 280 -999
2004-02-25 07:34:20 51°13.69 2°55.764 100.3 4.6 280 -999
2004-02-25 07:34:24 51°13.69 2°55.757 99.2 4.1 279 -999
2004-02-25 07:34:30 51°13.691 2°55.751 97.2 3.3 277 -999
2004-02-25 07:34:35 51°13.691 2°55.749 93.7 1.1 285 13.8
2004-02-25 07:34:38 51°13.691 2°55.749 87.3 0.4 314 5.5
2004-02-25 07:34:44 51°13.692 2°55.751 79.8 0.5 33 13.8
2004-02-25 07:34:48 51°13.692 2°55.753 73.2 1.2 54 13.7
2004-02-25 07:34:54 51°13.694 2°55.756 62.4 1.8 42 -999
2004-02-25 07:35:00 51°13.697 2°55.76 54.2 2.1 41 -999
2004-02-25 07:35:04 51°13.7 2°55.762 44.8 2.4 36 -999
2004-02-25 07:35:10 51°13.704 2°55.765 38.7 2.6 31 -999
2004-02-25 07:35:14 51°13.706 2°55.767 32 2.5 21 13.6
2004-02-25 07:35:18 51°13.709 2°55.768 28.3 2.1 22 13.6
2004-02-25 07:35:24 51°13.71 2°55.769 26.3 1.5 23 13.6
2004-02-25 07:35:28 51°13.711 2°55.77 22.9 0.5 11 13.5
2004-02-25 07:35:34 51°13.71 2°55.769 20.4 0.3 197 13.6
2004-02-25 07:35:39 51°13.709 2°55.769 17.4 0.9 196 13.6
2004-02-25 07:35:44 51°13.707 2°55.768 16 1.3 193 13.5
2004-02-25 07:35:48 51°13.705 2°55.767 15.2 2 194 -999
2004-02-25 07:35:55 51°13.7 2°55.765 14.6 2.6 193 -999
2004-02-25 07:36:00 51°13.696 2°55.763 14.6 2.8 192 -999
2004-02-25 07:36:04 51°13.694 2°55.762 15 2.7 195 -999
2004-02-25 07:36:10 51°13.69 2°55.761 15.9 2.5 195 -999
2004-02-25 07:36:14 51°13.689 2°55.76 15.9 0.8 197 -999
2004-02-25 07:36:20 51°13.69 2°55.76 12.6 0.2 311 -999
2004-02-25 07:36:24 51°13.692 2°55.759 6.9 1 348 -999
2004-02-25 07:36:30 51°13.696 2°55.758 359.3 1.7 350 -999
2004-02-25 07:36:34 51°13.698 2°55.756 352.2 2.6 341 -999
2004-02-25 07:36:39 51°13.701 2°55.754 343.5 2.5 336 -999
2004-02-25 07:36:44 51°13.705 2°55.751 340.7 2.5 338 -999
2004-02-25 07:36:50 51°13.709 2°55.747 337.8 2.8 334 -999
2004-02-25 07:36:54 51°13.713 2°55.744 336.3 3.5 331 13.6
2004-02-25 07:36:59 51°13.717 2°55.739 334.2 3.8 328 12.3
2004-02-25 07:37:04 51°13.722 2°55.734 332.9 4.1 328 11.3
2004-02-25 07:37:08 51°13.727 2°55.73 331.8 4.5 326 10.7
2004-02-25 07:37:14 51°13.733 2°55.723 331.4 5 327 10.3
2004-02-25 07:37:19 51°13.739 2°55.716 331.5 5.1 325 10.2
2004-02-25 07:37:24 51°13.746 2°55.71 332.1 5.3 327 10.1
2004-02-25 07:37:28 51°13.751 2°55.704 332.3 5.5 326 9.9
2004-02-25 07:37:34 51°13.759 2°55.695 332.3 5.9 327 9.9
2004-02-25 07:37:39 51°13.766 2°55.688 332.5 6 327 9.8
2004-02-25 07:37:44 51°13.773 2°55.68 333 6.2 328 9.8
2004-02-25 07:37:48 51°13.779 2°55.674 333.8 6.4 329 9.9
2004-02-25 07:37:54 51°13.788 2°55.665 334.7 6.5 330 10.2
2004-02-25 07:37:58 51°13.795 2°55.659 336.1 6.5 330 10.2
2004-02-25 07:38:04 51°13.805 2°55.652 337.2 6.7 332 10.4
2004-02-25 07:38:08 51°13.812 2°55.646 337.7 6.8 332 10.5
2004-02-25 07:38:14 51°13.822 2°55.638 338 6.9 334 10.4
2004-02-25 07:38:18 51°13.829 2°55.633 338.5 7 334 10.4
2004-02-25 07:38:24 51°13.84 2°55.624 338.9 7.2 334 10.4
2004-02-25 07:38:28 51°13.847 2°55.619 339.3 7.2 335 10
2004-02-25 07:38:34 51°13.858 2°55.611 339.4 7.2 335 9.6
2004-02-25 07:38:38 51°13.865 2°55.605 339.6 7.2 335 9.8
2004-02-25 07:38:44 51°13.876 2°55.597 339.9 7.3 336 9.6
2004-02-25 07:38:48 51°13.884 2°55.592 340.5 7.3 337 9.7
2004-02-25 07:38:54 51°13.895 2°55.584 341.5 7.5 338 9.8
2004-02-25 07:38:59 51°13.905 2°55.579 342 7.5 337 9.7
2004-02-25 07:39:04 51°13.914 2°55.573 342.1 7.5 337 9.8
2004-02-25 07:39:10 51°13.926 2°55.565 342 7.5 337 9.9
2004-02-25 07:39:14 51°13.934 2°55.559 341.7 7.6 337 9.9
2004-02-25 07:39:18 51°13.941 2°55.554 341 7.6 336 10
2004-02-25 07:39:24 51°13.953 2°55.546 340.7 7.7 336 10.2
2004-02-25 07:39:28 51°13.961 2°55.541 340.7 7.6 337 10.3
2004-02-25 07:39:34 51°13.972 2°55.533 340.9 7.6 337 10.4
2004-02-25 07:39:38 51°13.98 2°55.527 341.4 7.7 337 10.2
2004-02-25 07:39:44 51°13.992 2°55.519 341.4 7.6 337 10
2004-02-25 07:39:49 51°14.002 2°55.513 341.3 7.6 337 10.4
2004-02-25 07:39:54 51°14.011 2°55.506 341.4 7.6 337 10.4
2004-02-25 07:39:59 51°14.021 2°55.5 341.5 7.7 337 10.4
2004-02-25 07:40:04 51°14.031 2°55.493 341.5 7.7 337 10.4
2004-02-25 07:40:09 51°14.04 2°55.486 341.1 7.7 336 10.3
2004-02-25 07:40:14 51°14.05 2°55.479 340.7 7.6 336 10.4
2004-02-25 07:40:19 51°14.06 2°55.473 340.4 7.6 336 10.3
2004-02-25 07:40:24 51°14.069 2°55.465 339.7 7.6 335 -999
2004-02-25 07:40:28 51°14.077 2°55.459 338.9 7.6 334 -999
2004-02-25 07:40:34 51°14.088 2°55.45 338.9 7.9 334 10.7
2004-02-25 07:40:39 51°14.099 2°55.442 338.9 8.2 334 10.3
2004-02-25 07:40:44 51°14.109 2°55.434 338.6 8.4 334 10.4
2004-02-25 07:40:50 51°14.123 2°55.422 338.2 8.7 334 11
2004-02-25 07:40:54 51°14.132 2°55.415 337.4 9.2 332 10.2
2004-02-25 07:40:58 51°14.141 2°55.407 336.8 9.5 331 10.3
2004-02-25 07:41:04 51°14.155 2°55.394 336.4 9.7 331 -999
2004-02-25 07:41:10 51°14.17 2°55.379 335 10 329 10.3
2004-02-25 07:41:14 51°14.179 2°55.37 333.6 10.3 327 10.3
2004-02-25 07:41:18 51°14.189 2°55.359 331.9 10.5 325 10.3
2004-02-25 07:41:24 51°14.203 2°55.342 330.5 10.6 324 10.2
2004-02-25 07:41:29 51°14.215 2°55.327 328.4 10.7 322 10.2
2004-02-25 07:41:34 51°14.226 2°55.312 326.9 10.8 319 10.7
2004-02-25 07:41:38 51°14.235 2°55.299 324.3 10.9 318 10.2
2004-02-25 07:41:44 51°14.248 2°55.278 322.5 10.9 316 10.7
2004-02-25 07:41:50 51°14.261 2°55.257 319.8 10.9 315 -999
2004-02-25 07:41:54 51°14.269 2°55.243 318.2 11.2 313 -999
2004-02-25 07:42:00 51°14.282 2°55.22 317.6 11.3 312 11
2004-02-25 07:42:04 51°14.29 2°55.205 317 11.5 312 10.9
2004-02-25 07:42:10 51°14.303 2°55.181 316.4 11.6 311 10.2
2004-02-25 07:42:14 51°14.311 2°55.165 315.8 11.6 309 10.3
2004-02-25 07:42:19 51°14.321 2°55.145 314.8 11.8 308 10.6
2004-02-25 07:42:24 51°14.332 2°55.124 313.9 11.9 308 11.1
2004-02-25 07:42:30 51°14.344 2°55.1 314.3 11.9 310 10.6
2004-02-25 07:42:34 51°14.353 2°55.084 315.7 12 311 10.4
2004-02-25 07:42:38 51°14.361 2°55.068 316.2 12 310 10.4
2004-02-25 07:42:44 51°14.374 2°55.042 315.6 12 309 10.4
2004-02-25 07:42:50 51°14.385 2°55.016 314.7 12 305 10.7
2004-02-25 07:42:54 51°14.391 2°54.997 311.4 12 299 10.4
2004-02-25 07:42:59 51°14.397 2°54.972 305.3 12 294 10.4
2004-02-25 07:43:04 51°14.402 2°54.946 301.1 12.2 288 10.2
2004-02-25 07:43:09 51°14.404 2°54.92 293.7 12.2 281 10.3
2004-02-25 07:43:14 51°14.406 2°54.894 289.5 11.8 276 10.5
2004-02-25 07:43:18 51°14.407 2°54.873 285.6 11.5 274 10.6
2004-02-25 07:43:24 51°14.407 2°54.844 282.7 11.2 272 10.7
2004-02-25 07:43:28 51°14.407 2°54.825 279.5 11 270 10.6
2004-02-25 07:43:34 51°14.406 2°54.797 278.3 10.6 268 10.7
2004-02-25 07:43:39 51°14.405 2°54.775 276.6 10.3 266 10.6
2004-02-25 07:43:44 51°14.404 2°54.752 275.2 10.2 265 10.6
2004-02-25 07:43:48 51°14.403 2°54.735 274 10 265 10.5
2004-02-25 07:43:54 51°14.401 2°54.709 273.8 9.7 264 10.6
2004-02-25 07:43:58 51°14.399 2°54.692 273.3 9.5 263 10.5
2004-02-25 07:44:04 51°14.398 2°54.667 272.3 9.5 265 10.6
2004-02-25 07:44:09 51°14.396 2°54.647 273 9.6 260 10.4
2004-02-25 07:44:14 51°14.394 2°54.626 272.4 9.3 264 10.5
2004-02-25 07:44:19 51°14.393 2°54.606 273.3 9.2 261 10.5
2004-02-25 07:44:24 51°14.392 2°54.586 273.8 9.1 267 10.4
2004-02-25 07:44:28 51°14.391 2°54.57 275 9 263 10.5
2004-02-25 07:44:34 51°14.39 2°54.546 275.3 9.1 266 10.5
2004-02-25 07:44:38 51°14.389 2°54.531 276.2 9 266 10.3
2004-02-25 07:44:44 51°14.388 2°54.507 275.9 8.9 266 10.2
2004-02-25 07:44:48 51°14.386 2°54.491 275.2 9 263 10.1
2004-02-25 07:44:54 51°14.385 2°54.466 274.7 9.1 265 9.9
2004-02-25 07:44:59 51°14.382 2°54.444 273.2 10 261 9.8
2004-02-25 07:45:04 51°14.379 2°54.422 269.6 10.4 257 9.7
2004-02-25 07:45:09 51°14.374 2°54.399 263.4 10.9 251 9.7
2004-02-25 07:45:14 51°14.368 2°54.375 259.2 11.3 249 9.7
2004-02-25 07:45:19 51°14.361 2°54.352 255.5 11.7 245 9.5
2004-02-25 07:45:24 51°14.354 2°54.327 251.6 12.2 244 9.5
2004-02-25 07:45:28 51°14.347 2°54.307 250.4 12.6 246 9.4
2004-02-25 07:45:34 51°14.338 2°54.276 248.9 12.9 243 9.4
2004-02-25 07:45:39 51°14.328 2°54.251 248.6 13.1 241 9.1
2004-02-25 07:45:44 51°14.32 2°54.223 246.5 13.6 241 9.1
2004-02-25 07:45:48 51°14.312 2°54.203 246 13.7 242 9.1
2004-02-25 07:45:54 51°14.3 2°54.17 245.3 13.9 239 9.1
2004-02-25 07:45:59 51°14.291 2°54.143 245.6 14.1 242 9.2
2004-02-25 07:46:04 51°14.282 2°54.116 245.8 13.9 241 9.1
2004-02-25 07:46:08 51°14.274 2°54.094 244.7 14.2 240 9
2004-02-25 07:46:14 51°14.263 2°54.061 245.3 14.1 241 9
2004-02-25 07:46:19 51°14.253 2°54.034 245.3 14.2 240 9.1
2004-02-25 07:46:24 51°14.244 2°54.006 245.3 14.3 242 9
2004-02-25 07:46:29 51°14.234 2°53.979 246.3 14.2 244 8.8
2004-02-25 07:46:34 51°14.224 2°53.951 244.3 14.4 239 9
2004-02-25 07:46:39 51°14.214 2°53.924 246.5 14.3 239 9.1
2004-02-25 07:46:44 51°14.205 2°53.896 246.2 14.1 243 9
2004-02-25 07:46:48 51°14.196 2°53.874 244.6 14.5 238 8.9
2004-02-25 07:46:54 51°14.185 2°53.84 246.3 14.5 244 9
2004-02-25 07:46:59 51°14.175 2°53.812 245.5 14.7 239 9
2004-02-25 07:47:04 51°14.166 2°53.784 246 14.7 239 9.2
2004-02-25 07:47:08 51°14.157 2°53.762 246.2 14.4 239 9
2004-02-25 07:47:14 51°14.146 2°53.728 244.7 14.5 240 8.9
2004-02-25 07:47:19 51°14.136 2°53.7 244.6 14.6 240 9
2004-02-25 07:47:24 51°14.126 2°53.672 246.1 14.4 243 9
2004-02-25 07:47:28 51°14.117 2°53.65 245.2 14.6 238 9.2
2004-02-25 07:47:34 51°14.106 2°53.616 246.9 14.5 241 9.3
2004-02-25 07:47:38 51°14.098 2°53.594 245.3 14.5 241 9.1
2004-02-25 07:47:44 51°14.086 2°53.56 245.2 14.7 241 9.1
2004-02-25 07:47:49 51°14.077 2°53.532 245.6 14.6 242 9.2
2004-02-25 07:47:54 51°14.067 2°53.504 245.6 14.6 241 9.2
2004-02-25 07:47:59 51°14.057 2°53.475 245.9 14.7 241 9.2
2004-02-25 07:48:04 51°14.048 2°53.447 245 14.6 241 9.3
2004-02-25 07:48:08 51°14.039 2°53.424 244.6 14.7 240 9.3
2004-02-25 07:48:14 51°14.028 2°53.389 245 14.9 241 9.2
2004-02-25 07:48:19 51°14.018 2°53.361 245.9 14.7 240 9.2
2004-02-25 07:48:24 51°14.01 2°53.332 247.1 14.6 245 9.3
2004-02-25 07:48:28 51°14 2°53.31 246.7 14.7 238 9.4
2004-02-25 07:48:34 51°13.991 2°53.275 246.9 14.4 244 9.4
2004-02-25 07:48:39 51°13.981 2°53.246 246.7 14.6 242 9.4
2004-02-25 07:48:44 51°13.971 2°53.217 246.7 14.8 244 9.4
2004-02-25 07:48:49 51°13.963 2°53.188 247.5 14.8 242 9.6
2004-02-25 07:48:54 51°13.953 2°53.16 247.8 14.6 243 9.7
2004-02-25 07:48:59 51°13.943 2°53.131 247.6 14.7 242 9.6
2004-02-25 07:49:04 51°13.934 2°53.102 246.6 14.9 242 9.6
2004-02-25 07:49:08 51°13.926 2°53.079 246.8 14.7 241 9.7
2004-02-25 07:49:14 51°13.915 2°53.045 246.7 14.6 242 9.8
2004-02-25 07:49:18 51°13.908 2°53.022 246.3 14.6 242 9.7
2004-02-25 07:49:24 51°13.896 2°52.987 246.1 14.7 241 9.7
2004-02-25 07:49:29 51°13.886 2°52.959 246.9 14.7 243 9.7
2004-02-25 07:49:34 51°13.877 2°52.929 246.8 14.7 244 9.9
2004-02-25 07:49:38 51°13.869 2°52.907 247.5 14.5 241 10
2004-02-25 07:49:44 51°13.858 2°52.873 246.3 14.6 242 9.9
2004-02-25 07:49:48 51°13.85 2°52.85 246.9 14.6 243 9.9
2004-02-25 07:49:54 51°13.84 2°52.815 247.4 14.5 245 9.9
2004-02-25 07:49:59 51°13.83 2°52.788 247.6 14.4 240 9.9
2004-02-25 07:50:04 51°13.821 2°52.759 246.8 14.6 244 10
2004-02-25 07:50:08 51°13.813 2°52.736 246.4 14.7 242 10
2004-02-25 07:50:14 51°13.803 2°52.701 248.9 14.6 245 10.1
2004-02-25 07:50:18 51°13.796 2°52.678 248.2 14.5 244 10
2004-02-25 07:50:24 51°13.785 2°52.644 248.6 14.3 244 9.9
2004-02-25 07:50:30 51°13.773 2°52.61 247.2 14.5 241 10
2004-02-25 07:50:34 51°13.766 2°52.588 247.5 14.5 242 10.1
2004-02-25 07:50:39 51°13.757 2°52.56 247.5 14.4 242 10
2004-02-25 07:50:44 51°13.747 2°52.532 246.7 14.4 243 9.9
2004-02-25 07:50:48 51°13.74 2°52.509 246.7 14.4 242 10
2004-02-25 07:50:54 51°13.729 2°52.475 248.1 14.3 243 10.1
2004-02-25 07:50:59 51°13.721 2°52.447 248.9 14.2 245 10.2
2004-02-25 07:51:04 51°13.711 2°52.419 248.2 14.3 243 10.2
2004-02-25 07:51:08 51°13.705 2°52.395 248 14.5 243 10.2
2004-02-25 07:51:14 51°13.694 2°52.362 249.3 14.3 246 10.3
2004-02-25 07:51:19 51°13.684 2°52.333 247.7 14.6 242 10.2
2004-02-25 07:51:24 51°13.676 2°52.304 248.1 14.6 246 10.1
2004-02-25 07:51:28 51°13.669 2°52.282 248.5 14.2 242 10.2
2004-02-25 07:51:34 51°13.657 2°52.249 247 14.2 242 10.1
2004-02-25 07:51:38 51°13.65 2°52.226 246.4 14.5 243 10.2
2004-02-25 07:51:44 51°13.638 2°52.193 248 14.3 243 10.3
2004-02-25 07:51:48 51°13.631 2°52.17 246.1 14.4 244 10.3
2004-02-25 07:51:54 51°13.62 2°52.136 246.9 14.5 240 10.2
2004-02-25 07:51:59 51°13.611 2°52.107 246.7 14.5 244 10.3
2004-02-25 07:52:04 51°13.601 2°52.079 247.2 14.5 240 10.4
2004-02-25 07:52:08 51°13.594 2°52.056 247.3 14.5 243 10.4
2004-02-25 07:52:14 51°13.583 2°52.023 247.2 14.5 242 10.4
2004-02-25 07:52:19 51°13.573 2°51.994 247.2 14.6 241 10.4
2004-02-25 07:52:24 51°13.565 2°51.965 247 14.5 245 10.4
2004-02-25 07:52:28 51°13.557 2°51.943 246.9 14.5 241 10.3
2004-02-25 07:52:34 51°13.546 2°51.909 247.7 14.4 244 10.3
2004-02-25 07:52:38 51°13.537 2°51.886 246.8 14.8 240 10.3
2004-02-25 07:52:44 51°13.527 2°51.852 247.4 14.7 244 10.4
2004-02-25 07:52:48 51°13.518 2°51.83 247 14.4 239 10.4
2004-02-25 07:52:54 51°13.508 2°51.795 245.5 14.6 244 10.4
2004-02-25 07:52:59 51°13.497 2°51.766 247.6 14.9 240 10.4
2004-02-25 07:53:04 51°13.489 2°51.737 248.1 14.7 246 10.3
2004-02-25 07:53:08 51°13.481 2°51.714 248.6 14.7 241 10.5
2004-02-25 07:53:14 51°13.472 2°51.679 248.2 14.4 245 10.3
2004-02-25 07:53:19 51°13.461 2°51.651 248.1 14.6 240 10.4
2004-02-25 07:53:24 51°13.453 2°51.621 247.8 14.5 246 10.5
2004-02-25 07:53:28 51°13.444 2°51.6 247.5 14.7 239 10.4
2004-02-25 07:53:34 51°13.433 2°51.564 247.5 14.8 244 10.4
2004-02-25 07:53:38 51°13.425 2°51.542 247.1 14.7 242 10.5
2004-02-25 07:53:44 51°13.415 2°51.508 248.2 14.4 246 10.3
2004-02-25 07:53:49 51°13.406 2°51.479 247.7 14.5 241 10.4
2004-02-25 07:53:54 51°13.396 2°51.451 246.5 14.7 242 10.5
2004-02-25 07:53:59 51°13.387 2°51.422 247.7 14.5 243 10.6
2004-02-25 07:54:04 51°13.377 2°51.395 247.2 14.5 240 10.6
2004-02-25 07:54:08 51°13.37 2°51.371 246.1 14.6 243 10.6
2004-02-25 07:54:14 51°13.359 2°51.337 247 14.6 242 10.6
2004-02-25 07:54:19 51°13.349 2°51.308 247.3 14.7 242 10.5
2004-02-25 07:54:24 51°13.34 2°51.279 248.2 14.7 243 10.6
2004-02-25 07:54:28 51°13.332 2°51.257 247.5 14.7 241 10.6
2004-02-25 07:54:34 51°13.321 2°51.222 247.2 14.6 242 10.7
2004-02-25 07:54:38 51°13.312 2°51.2 247 14.7 241 10.6
2004-02-25 07:54:44 51°13.302 2°51.165 246.8 14.5 245 10.6
2004-02-25 07:54:49 51°13.292 2°51.137 246.6 14.5 240 10.6
2004-02-25 07:54:54 51°13.283 2°51.108 246.8 14.5 243 10.7
2004-02-25 07:54:59 51°13.273 2°51.08 247.9 14.6 242 10.6
2004-02-25 07:55:04 51°13.264 2°51.051 246.5 14.7 242 10.7
2004-02-25 07:55:08 51°13.256 2°51.028 247.5 14.6 242 10.8
2004-02-25 07:55:14 51°13.245 2°50.994 247.1 14.6 243 10.9
2004-02-25 07:55:18 51°13.238 2°50.971 247 14.7 243 10.8
2004-02-25 07:55:24 51°13.227 2°50.936 246.7 14.8 243 10.7
2004-02-25 07:55:28 51°13.219 2°50.913 248 14.8 244 10.8
2004-02-25 07:55:34 51°13.208 2°50.877 247.5 14.8 242 10.9
2004-02-25 07:55:39 51°13.198 2°50.849 248.1 14.8 242 10.9
2004-02-25 07:55:44 51°13.19 2°50.819 247.5 14.7 244 10.9
2004-02-25 07:55:48 51°13.182 2°50.796 248.1 14.5 244 10.8
2004-02-25 07:55:54 51°13.171 2°50.76 247.6 14.9 246 10.7
2004-02-25 07:55:59 51°13.161 2°50.732 248.8 14.7 243 10.7
2004-02-25 07:56:04 51°13.153 2°50.702 246.7 14.8 242 10.7
2004-02-25 07:56:08 51°13.144 2°50.68 247.1 14.6 243 10.7
2004-02-25 07:56:14 51°13.133 2°50.646 246 14.6 241 10.7
2004-02-25 07:56:19 51°13.123 2°50.618 244.6 14.6 241 10.9
2004-02-25 07:56:24 51°13.112 2°50.59 245.3 14.6 240 10.9
2004-02-25 07:56:28 51°13.104 2°50.567 244.6 14.7 241 10.8
2004-02-25 07:56:34 51°13.092 2°50.533 243.6 14.9 240 10.9
2004-02-25 07:56:39 51°13.082 2°50.505 244.4 14.7 240 11.1
2004-02-25 07:56:44 51°13.072 2°50.476 245.3 14.5 242 10.9
2004-02-25 07:56:48 51°13.064 2°50.454 245.2 14.6 241 10.8
2004-02-25 07:56:54 51°13.052 2°50.42 245.4 14.7 240 10.9
2004-02-25 07:56:59 51°13.042 2°50.391 245.5 14.7 241 11.1
2004-02-25 07:57:04 51°13.033 2°50.363 245.7 14.7 241 11.1
2004-02-25 07:57:08 51°13.025 2°50.34 245.6 14.7 242 10.9
2004-02-25 07:57:14 51°13.014 2°50.306 245.8 14.6 244 10.9
2004-02-25 07:57:19 51°13.003 2°50.278 245.6 14.7 239 11
2004-02-25 07:57:24 51°12.993 2°50.249 245 14.8 242 11
2004-02-25 07:57:28 51°12.985 2°50.227 245.4 14.6 241 11.2
2004-02-25 07:57:34 51°12.973 2°50.194 245.3 14.6 239 11
2004-02-25 07:57:38 51°12.965 2°50.171 244 14.8 241 10.9
2004-02-25 07:57:44 51°12.953 2°50.137 243.9 14.8 240 10.9
2004-02-25 07:57:49 51°12.942 2°50.109 244.1 14.9 240 11.1
2004-02-25 07:57:54 51°12.933 2°50.08 246 14.8 241 11.1
2004-02-25 07:57:59 51°12.921 2°50.052 244.5 14.8 237 11.2
2004-02-25 07:58:04 51°12.912 2°50.024 245.7 14.8 237 11.1
2004-02-25 07:58:09 51°12.901 2°49.996 243.8 14.5 236 10.8
2004-02-25 07:58:14 51°12.892 2°49.967 244.8 14.9 243 10.9
2004-02-25 07:58:19 51°12.882 2°49.939 246.3 14.7 239 10.8
2004-02-25 07:58:24 51°12.872 2°49.91 244.8 14.7 241 11
2004-02-25 07:58:28 51°12.864 2°49.888 245.8 14.7 240 11.1
2004-02-25 07:58:34 51°12.852 2°49.854 245.2 14.6 243 11.3
2004-02-25 07:58:39 51°12.842 2°49.826 245.8 14.6 240 11.2
2004-02-25 07:58:44 51°12.833 2°49.797 245.1 14.7 242 11.2
2004-02-25 07:58:48 51°12.825 2°49.775 245.8 14.6 241 11.2
2004-02-25 07:58:54 51°12.813 2°49.741 245.5 14.8 240 11.3
2004-02-25 07:58:59 51°12.804 2°49.712 246 14.6 243 11.5
2004-02-25 07:59:04 51°12.794 2°49.685 246.7 14.4 241 11.2
2004-02-25 07:59:08 51°12.786 2°49.662 244.2 14.6 240 11.2
2004-02-25 07:59:14 51°12.774 2°49.627 246.8 14.8 244 11.1
2004-02-25 07:59:19 51°12.765 2°49.599 246.9 14.4 243 11.2
2004-02-25 07:59:24 51°12.754 2°49.572 246 14.5 239 11.3
2004-02-25 07:59:29 51°12.746 2°49.543 244.8 14.7 241 11.2
2004-02-25 07:59:34 51°12.735 2°49.516 245.3 14.4 239 11.2
2004-02-25 07:59:39 51°12.725 2°49.487 243.8 14.8 241 11.1
2004-02-25 07:59:44 51°12.716 2°49.458 245.8 14.8 241 11.2
2004-02-25 07:59:49 51°12.705 2°49.431 245.9 14.6 240 11.3
2004-02-25 07:59:54 51°12.696 2°49.402 244.7 14.6 243 11.3
2004-02-25 07:59:59 51°12.685 2°49.374 245.3 14.7 239 11.3
2004-02-25 08:00:04 51°12.676 2°49.345 244.6 14.8 242 11.2
2004-02-25 08:00:08 51°12.667 2°49.323 244.9 14.8 239 11.3
2004-02-25 08:00:14 51°12.656 2°49.289 245 14.6 241 11.4
2004-02-25 08:00:18 51°12.648 2°49.267 244.9 14.6 241 11.4
2004-02-25 08:00:24 51°12.636 2°49.233 245.3 14.6 241 11.3
2004-02-25 08:00:29 51°12.626 2°49.204 244.5 14.8 240 11.3
2004-02-25 08:00:34 51°12.616 2°49.176 245.2 14.7 241 11.3
2004-02-25 08:00:39 51°12.606 2°49.147 245.2 14.8 240 11.3
2004-02-25 08:00:44 51°12.596 2°49.119 246 14.8 243 11.3
2004-02-25 08:00:50 51°12.585 2°49.084 245.3 14.8 240 11.4
2004-02-25 08:00:54 51°12.577 2°49.062 245.7 14.6 241 11.4
2004-02-25 08:00:59 51°12.567 2°49.033 245.5 14.7 242 11.2
2004-02-25 08:01:04 51°12.557 2°49.004 245.3 14.8 241 11.4
2004-02-25 08:01:08 51°12.55 2°48.981 246.7 14.8 243 11.4
2004-02-25 08:01:14 51°12.538 2°48.947 246 14.8 241 11.4
2004-02-25 08:01:19 51°12.529 2°48.918 245.7 14.6 244 11.5
2004-02-25 08:01:24 51°12.518 2°48.891 245.6 14.6 240 11.3
2004-02-25 08:01:30 51°12.506 2°48.856 244 14.8 240 11.4
2004-02-25 08:01:34 51°12.498 2°48.834 245.8 14.7 240 11.3
2004-02-25 08:01:39 51°12.489 2°48.805 245.1 14.6 242 11.3
2004-02-25 08:01:44 51°12.479 2°48.777 245.9 14.6 243 11.5
2004-02-25 08:01:48 51°12.47 2°48.755 243.9 14.6 239 11.3
2004-02-25 08:01:54 51°12.459 2°48.722 245.1 14.5 243 11.4
2004-02-25 08:01:59 51°12.448 2°48.693 244.4 14.7 239 11.5
2004-02-25 08:02:04 51°12.439 2°48.665 244 14.8 240 11.6
2004-02-25 08:02:10 51°12.426 2°48.632 245.9 14.4 241 11.5
2004-02-25 08:02:14 51°12.419 2°48.608 243.6 14.5 238 11.5
2004-02-25 08:02:19 51°12.409 2°48.581 245.1 14.7 240 11.6
2004-02-25 08:02:24 51°12.4 2°48.552 246.6 14.4 243 11.6
2004-02-25 08:02:28 51°12.391 2°48.531 244.3 14.5 239 11.6
2004-02-25 08:02:34 51°12.38 2°48.497 244.5 14.5 241 11.6
2004-02-25 08:02:39 51°12.368 2°48.47 243.8 14.8 237 11.4
2004-02-25 08:02:44 51°12.36 2°48.44 244.2 14.7 243 11.5
2004-02-25 08:02:48 51°12.351 2°48.419 246.5 14.6 245 11.4
2004-02-25 08:02:54 51°12.339 2°48.384 243.9 14.7 240 11.6
2004-02-25 08:02:59 51°12.33 2°48.357 245.9 14.5 241 11.8
2004-02-25 08:03:04 51°12.32 2°48.328 245.1 14.4 240 11.6
2004-02-25 08:03:08 51°12.312 2°48.306 244.5 14.6 242 11.5
2004-02-25 08:03:14 51°12.301 2°48.271 245.8 14.5 243 11.5
2004-02-25 08:03:19 51°12.291 2°48.244 245.2 14.6 239 11.5
2004-02-25 08:03:24 51°12.282 2°48.215 246.7 14.7 244 11.5
2004-02-25 08:03:28 51°12.273 2°48.193 246.1 14.6 240 11.6
2004-02-25 08:03:34 51°12.262 2°48.159 245.2 14.6 242 11.6
2004-02-25 08:03:38 51°12.254 2°48.136 245.4 14.4 242 11.7
2004-02-25 08:03:44 51°12.242 2°48.103 245.3 14.3 241 11.7
2004-02-25 08:03:49 51°12.233 2°48.074 244.4 14.8 243 11.6
2004-02-25 08:03:54 51°12.223 2°48.046 246.5 14.8 243 11.8
2004-02-25 08:03:59 51°12.213 2°48.018 246.7 14.5 241 11.7
2004-02-25 08:04:04 51°12.204 2°47.99 244.8 14.7 240 11.6
2004-02-25 08:04:10 51°12.192 2°47.956 246.7 14.4 243 11.7
2004-02-25 08:04:14 51°12.184 2°47.934 245.8 14.3 241 11.8
2004-02-25 08:04:19 51°12.175 2°47.906 245.1 14.5 242 11.6
2004-02-25 08:04:24 51°12.165 2°47.878 245 14.4 240 11.5
2004-02-25 08:04:29 51°12.155 2°47.85 244.7 14.6 240 11.7
2004-02-25 08:04:34 51°12.145 2°47.821 246.2 14.4 242 11.7
2004-02-25 08:04:38 51°12.138 2°47.799 246.1 14.4 242 11.7
2004-02-25 08:04:44 51°12.125 2°47.766 243.7 14.6 239 11.6
2004-02-25 08:04:50 51°12.114 2°47.731 244.1 14.7 243 11.7
2004-02-25 08:04:54 51°12.105 2°47.71 246.3 14.6 239 11.6
2004-02-25 08:04:59 51°12.097 2°47.681 245.4 14.5 244 11.6
2004-02-25 08:05:04 51°12.086 2°47.654 245.4 14.5 242 11.7
2004-02-25 08:05:09 51°12.078 2°47.624 245.6 14.6 243 11.7
2004-02-25 08:05:14 51°12.067 2°47.598 245.6 14.4 243 11.5
2004-02-25 08:05:19 51°12.058 2°47.569 244.8 14.5 243 11.5
2004-02-25 08:05:24 51°12.047 2°47.541 245.3 14.8 239 11.6
2004-02-25 08:05:30 51°12.036 2°47.507 246.1 14.7 244 11.6
2004-02-25 08:05:34 51°12.028 2°47.484 246.2 14.4 242 11.7
2004-02-25 08:05:39 51°12.019 2°47.456 246.3 14.5 242 11.7
2004-02-25 08:05:44 51°12.01 2°47.428 245.6 14.5 241 11.7
2004-02-25 08:05:50 51°11.998 2°47.394 246 14.5 243 11.5
2004-02-25 08:05:54 51°11.99 2°47.372 245.2 14.5 240 11.5
2004-02-25 08:05:59 51°11.98 2°47.343 245.2 14.7 242 11.6
2004-02-25 08:06:04 51°11.971 2°47.315 245.8 14.8 242 11.6
2004-02-25 08:06:10 51°11.96 2°47.281 246.5 14.6 242 11.6
2004-02-25 08:06:14 51°11.951 2°47.26 245.5 14.3 239 11.6
2004-02-25 08:06:19 51°11.941 2°47.232 244.3 14.5 240 11.5
2004-02-25 08:06:24 51°11.932 2°47.203 244.5 14.5 241 11.5
2004-02-25 08:06:29 51°11.921 2°47.176 243.9 14.6 238 11.4
2004-02-25 08:06:34 51°11.912 2°47.147 244.2 14.8 242 11.5
2004-02-25 08:06:39 51°11.902 2°47.118 244.9 14.6 241 11.7
2004-02-25 08:06:44 51°11.893 2°47.089 247.1 14.6 244 11.5
2004-02-25 08:06:48 51°11.888 2°47.065 248.9 14.6 245 11.4
2004-02-25 08:06:54 51°11.878 2°47.03 251.6 14.4 247 11.3
2004-02-25 08:06:59 51°11.871 2°46.999 251.2 14.8 250 11.4
2004-02-25 08:07:04 51°11.863 2°46.969 254.4 14.7 249 11.6
2004-02-25 08:07:09 51°11.858 2°46.938 255.3 14.5 250 11.6
2004-02-25 08:07:14 51°11.85 2°46.909 255.8 14.5 249 11.6
2004-02-25 08:07:19 51°11.844 2°46.878 255.3 14.5 251 11.7
2004-02-25 08:07:24 51°11.837 2°46.848 255.3 14.6 250 11.7
2004-02-25 08:07:28 51°11.832 2°46.823 255.3 14.7 250 11.6
2004-02-25 08:07:34 51°11.824 2°46.787 256.2 14.6 252 11.7
2004-02-25 08:07:39 51°11.817 2°46.756 255.6 14.6 251 11.7
2004-02-25 08:07:44 51°11.811 2°46.725 255.9 14.7 250 11.8
2004-02-25 08:07:48 51°11.805 2°46.702 256.9 14.6 252 11.8
2004-02-25 08:07:54 51°11.797 2°46.665 255.8 14.6 251 11.7
2004-02-25 08:07:59 51°11.79 2°46.635 255.6 14.8 250 11.8
2004-02-25 08:08:04 51°11.784 2°46.604 257.1 14.6 254 11.9
2004-02-25 08:08:08 51°11.779 2°46.58 256.3 14.5 249 11.9
2004-02-25 08:08:14 51°11.772 2°46.543 256.1 14.7 252 11.9
2004-02-25 08:08:19 51°11.765 2°46.512 256.9 14.6 252 11.9
2004-02-25 08:08:24 51°11.758 2°46.482 256.7 14.7 251 11.9
2004-02-25 08:08:30 51°11.751 2°46.445 256.3 14.5 252 12.1
2004-02-25 08:08:34 51°11.745 2°46.421 256.1 14.6 250 12
2004-02-25 08:08:38 51°11.74 2°46.396 255.3 14.6 250 11.9
2004-02-25 08:08:44 51°11.732 2°46.36 255.5 14.6 249 11.9
2004-02-25 08:08:49 51°11.726 2°46.329 254.8 14.7 252 11.9
2004-02-25 08:08:54 51°11.718 2°46.299 255.7 14.7 249 11.9
2004-02-25 08:08:59 51°11.712 2°46.267 255.2 14.8 253 12
2004-02-25 08:09:04 51°11.706 2°46.237 256.3 14.7 252 12
2004-02-25 08:09:09 51°11.699 2°46.206 256.6 14.7 251 12.1
2004-02-25 08:09:14 51°11.693 2°46.175 256.2 14.7 253 11.9
2004-02-25 08:09:18 51°11.687 2°46.151 256.7 14.7 253 12
2004-02-25 08:09:24 51°11.679 2°46.115 255 14.6 250 11.8
2004-02-25 08:09:29 51°11.673 2°46.083 255.9 14.8 252 11.7
2004-02-25 08:09:34 51°11.666 2°46.053 255.7 14.6 253 11.9
2004-02-25 08:09:39 51°11.659 2°46.023 256.6 14.5 250 11.8
2004-02-25 08:09:44 51°11.654 2°45.991 255.3 14.6 248 12
2004-02-25 08:09:49 51°11.646 2°45.961 255.8 14.7 252 12
2004-02-25 08:09:54 51°11.64 2°45.931 256.2 14.5 252 12.1
2004-02-25 08:09:58 51°11.634 2°45.907 255.2 14.6 251 12.1
2004-02-25 08:10:04 51°11.627 2°45.87 255.4 14.6 252 12
2004-02-25 08:10:10 51°11.618 2°45.834 255.4 14.6 249 12
2004-02-25 08:10:14 51°11.613 2°45.809 255 14.7 249 12.1
2004-02-25 08:10:18 51°11.607 2°45.784 255.7 14.8 250 12.1
2004-02-25 08:10:24 51°11.6 2°45.747 255.8 14.9 252 12.1
2004-02-25 08:10:29 51°11.593 2°45.717 256.3 14.5 249 12.2
2004-02-25 08:10:34 51°11.586 2°45.686 255 14.7 251 12
2004-02-25 08:10:38 51°11.581 2°45.662 255.3 14.7 251 12
2004-02-25 08:10:44 51°11.573 2°45.625 255.6 14.6 251 11.9
2004-02-25 08:10:48 51°11.567 2°45.601 254.9 14.5 250 12
2004-02-25 08:10:54 51°11.559 2°45.564 256 14.6 250 12
2004-02-25 08:10:59 51°11.553 2°45.534 256.4 14.5 252 12.1
2004-02-25 08:11:04 51°11.546 2°45.503 255.8 14.6 251 12.2
2004-02-25 08:11:10 51°11.538 2°45.467 256.2 14.6 252 12
2004-02-25 08:11:14 51°11.533 2°45.442 256.2 14.6 251 12.1
2004-02-25 08:11:19 51°11.526 2°45.412 255.8 14.5 251 12.1
2004-02-25 08:11:24 51°11.52 2°45.382 255.8 14.4 252 12
2004-02-25 08:11:30 51°11.512 2°45.345 254.2 14.5 250 11.9
2004-02-25 08:11:34 51°11.506 2°45.32 255.4 14.9 251 11.9
2004-02-25 08:11:39 51°11.5 2°45.29 255.8 14.7 251 12
2004-02-25 08:11:44 51°11.493 2°45.26 256.4 14.5 252 12
2004-02-25 08:11:50 51°11.486 2°45.223 255.1 14.5 250 11.9
2004-02-25 08:11:54 51°11.48 2°45.199 255.4 14.5 251 12
2004-02-25 08:11:59 51°11.473 2°45.168 256.4 14.5 251 11.9
2004-02-25 08:12:04 51°11.467 2°45.137 254.5 14.8 250 11.9
2004-02-25 08:12:08 51°11.462 2°45.113 256.6 14.7 252 12
2004-02-25 08:12:14 51°11.454 2°45.077 256.1 14.5 250 12
2004-02-25 08:12:19 51°11.447 2°45.046 254.9 14.6 251 12
2004-02-25 08:12:24 51°11.441 2°45.015 256.1 14.6 253 12
2004-02-25 08:12:30 51°11.433 2°44.979 255.8 14.5 253 11.9
2004-02-25 08:12:34 51°11.427 2°44.955 254.7 14.6 251 11.9
2004-02-25 08:12:39 51°11.421 2°44.925 255 14.5 251 11.9
2004-02-25 08:12:44 51°11.414 2°44.894 254.9 14.6 251 11.9
2004-02-25 08:12:49 51°11.408 2°44.863 255.4 14.7 251 11.9
2004-02-25 08:12:54 51°11.4 2°44.833 256.4 14.6 249 11.9
2004-02-25 08:12:58 51°11.395 2°44.809 254.8 14.6 249 12
2004-02-25 08:13:04 51°11.387 2°44.773 255.9 14.5 252 11.9
2004-02-25 08:13:08 51°11.382 2°44.749 254.2 14.4 249 11.9
2004-02-25 08:13:14 51°11.373 2°44.712 255.2 14.4 252 11.9
2004-02-25 08:13:19 51°11.367 2°44.681 254.6 15 252 12
2004-02-25 08:13:24 51°11.361 2°44.651 256.8 14.6 253 12
2004-02-25 08:13:30 51°11.353 2°44.614 256.1 14.4 252 11.9
2004-02-25 08:13:34 51°11.347 2°44.59 255.1 14.7 251 11.9
2004-02-25 08:13:39 51°11.341 2°44.559 256 14.8 251 11.9
2004-02-25 08:13:44 51°11.335 2°44.528 256.1 14.6 252 11.9
2004-02-25 08:13:50 51°11.326 2°44.493 256.2 14.4 254 11.9
2004-02-25 08:13:54 51°11.322 2°44.468 254.7 14.5 250 11.9
2004-02-25 08:13:59 51°11.316 2°44.438 256 14.5 252 11.8
2004-02-25 08:14:04 51°11.309 2°44.408 255.9 14.4 250 11.8
2004-02-25 08:14:08 51°11.304 2°44.383 254.9 14.6 250 11.8
2004-02-25 08:14:14 51°11.296 2°44.346 255.7 14.9 251 11.7
2004-02-25 08:14:18 51°11.291 2°44.322 256 14.4 251 11.8
2004-02-25 08:14:24 51°11.283 2°44.285 255.2 14.4 250 11.9
2004-02-25 08:14:28 51°11.278 2°44.261 254.8 14.5 253 11.9
2004-02-25 08:14:34 51°11.269 2°44.225 255.4 14.5 250 11.8
2004-02-25 08:14:39 51°11.263 2°44.194 255.1 14.5 252 11.9
2004-02-25 08:14:44 51°11.256 2°44.164 255.3 14.6 249 11.9
2004-02-25 08:14:48 51°11.252 2°44.139 254.4 14.6 252 11.7
2004-02-25 08:14:54 51°11.243 2°44.103 255.2 14.7 250 11.8
2004-02-25 08:14:59 51°11.237 2°44.072 255.2 14.7 254 11.8
2004-02-25 08:15:04 51°11.23 2°44.041 256.1 14.6 250 11.9
2004-02-25 08:15:10 51°11.223 2°44.004 255 14.7 251 12
2004-02-25 08:15:14 51°11.218 2°43.979 256.2 14.6 253 11.9
2004-02-25 08:15:19 51°11.211 2°43.95 256 14.3 250 11.9
2004-02-25 08:15:24 51°11.204 2°43.92 254.7 14.3 251 11.8
2004-02-25 08:15:28 51°11.199 2°43.896 253.3 14.6 249 11.7
2004-02-25 08:15:34 51°11.191 2°43.859 255.4 14.6 250 11.8
2004-02-25 08:15:39 51°11.184 2°43.829 254.8 14.5 251 11.8
2004-02-25 08:15:44 51°11.177 2°43.799 254.5 14.4 250 11.7
2004-02-25 08:15:48 51°11.172 2°43.774 253.9 14.7 249 11.6
2004-02-25 08:15:54 51°11.164 2°43.737 256.1 14.6 251 11.7
2004-02-25 08:15:58 51°11.159 2°43.713 256.9 14.6 251 11.7
2004-02-25 08:16:04 51°11.151 2°43.677 254.7 14.2 250 11.7
2004-02-25 08:16:08 51°11.145 2°43.653 254.8 14.3 250 11.5
2004-02-25 08:16:14 51°11.138 2°43.617 254.9 14.6 252 11.6
2004-02-25 08:16:19 51°11.131 2°43.587 255.4 14.6 250 11.8
2004-02-25 08:16:24 51°11.125 2°43.557 256.4 14.5 253 11.8
2004-02-25 08:16:30 51°11.117 2°43.521 254.4 14.4 249 11.9
2004-02-25 08:16:34 51°11.111 2°43.496 254 14.7 250 11.9
2004-02-25 08:16:38 51°11.106 2°43.471 255.5 14.8 252 11.8
2004-02-25 08:16:44 51°11.098 2°43.435 255.2 14.6 249 11.9
2004-02-25 08:16:48 51°11.092 2°43.412 254.4 14.3 250 11.9
2004-02-25 08:16:54 51°11.084 2°43.376 253.7 14.5 249 12
2004-02-25 08:16:58 51°11.079 2°43.351 253.3 14.5 251 11.8
2004-02-25 08:17:04 51°11.071 2°43.314 255 14.6 250 11.8
2004-02-25 08:17:09 51°11.064 2°43.284 256.1 14.4 251 11.9
2004-02-25 08:17:14 51°11.058 2°43.255 256.6 14.4 249 11.8
2004-02-25 08:17:19 51°11.051 2°43.224 253.6 14.6 250 11.6
2004-02-25 08:17:24 51°11.045 2°43.194 256.2 14.5 254 11.7
2004-02-25 08:17:30 51°11.037 2°43.157 255 14.6 246 11.8
2004-02-25 08:17:34 51°11.032 2°43.133 255.7 14.6 252 11.8
2004-02-25 08:17:38 51°11.026 2°43.108 256.3 14.6 251 11.7
2004-02-25 08:17:44 51°11.019 2°43.072 256.2 14.5 253 11.8
2004-02-25 08:17:49 51°11.013 2°43.042 255.8 14.5 251 11.9
2004-02-25 08:17:54 51°11.006 2°43.012 255.9 14.3 251 11.6
2004-02-25 08:17:59 51°11 2°42.982 255.2 14.3 252 11.6
2004-02-25 08:18:04 51°10.994 2°42.951 256.1 14.3 253 11.6
2004-02-25 08:18:10 51°10.986 2°42.915 255.6 14.5 252 11.7
2004-02-25 08:18:14 51°10.981 2°42.891 256.4 14.5 250 11.7
2004-02-25 08:18:19 51°10.975 2°42.86 255 14.5 251 11.9
2004-02-25 08:18:24 51°10.968 2°42.83 255.4 14.5 253 12
2004-02-25 08:18:28 51°10.964 2°42.805 255.4 14.6 249 12
2004-02-25 08:18:34 51°10.956 2°42.769 256 14.5 250 12.1
2004-02-25 08:18:39 51°10.95 2°42.739 255.3 14.5 251 12.1
2004-02-25 08:18:44 51°10.942 2°42.709 255.4 14.6 251 11.8
2004-02-25 08:18:50 51°10.935 2°42.672 254.9 14.7 251 11.8
2004-02-25 08:18:54 51°10.93 2°42.647 255.3 14.7 251 11.8
2004-02-25 08:18:59 51°10.924 2°42.617 255.6 14.7 251 11.8
2004-02-25 08:19:04 51°10.917 2°42.587 256.3 14.5 252 11.8
2004-02-25 08:19:08 51°10.912 2°42.562 255.6 14.4 250 11.7
2004-02-25 08:19:14 51°10.904 2°42.526 254.9 14.4 250 11.7
2004-02-25 08:19:19 51°10.898 2°42.495 255 14.6 252 11.6
2004-02-25 08:19:24 51°10.892 2°42.464 255 14.7 251 11.8
2004-02-25 08:19:30 51°10.884 2°42.427 256.8 14.8 254 11.8
2004-02-25 08:19:34 51°10.88 2°42.402 256.2 14.6 257 11.9
2004-02-25 08:19:39 51°10.874 2°42.372 258.8 14.5 253 11.8
2004-02-25 08:19:44 51°10.869 2°42.34 258.1 14.6 254 11.8
2004-02-25 08:19:48 51°10.865 2°42.316 258.6 14.5 255 11.8
2004-02-25 08:19:54 51°10.858 2°42.279 258.5 14.5 253 11.8
2004-02-25 08:19:59 51°10.853 2°42.248 259.1 14.6 254 11.7
2004-02-25 08:20:04 51°10.848 2°42.217 259.4 14.6 254 11.7
2004-02-25 08:20:10 51°10.841 2°42.18 259.6 14.4 254 11.8
2004-02-25 08:20:14 51°10.838 2°42.155 258.9 14.4 255 11.8
2004-02-25 08:20:19 51°10.832 2°42.123 259.9 14.7 254 11.6
2004-02-25 08:20:24 51°10.827 2°42.092 259.7 14.8 256 11.8
2004-02-25 08:20:28 51°10.823 2°42.067 260.3 14.7 256 11.9
2004-02-25 08:20:34 51°10.817 2°42.029 260.6 14.5 254 12
2004-02-25 08:20:39 51°10.811 2°41.998 259.6 14.5 255 11.8
2004-02-25 08:20:44 51°10.806 2°41.967 258.3 14.6 254 11.8
2004-02-25 08:20:50 51°10.8 2°41.931 259.7 14.3 254 11.7
2004-02-25 08:20:54 51°10.796 2°41.906 258.8 14.4 255 11.9
2004-02-25 08:20:59 51°10.791 2°41.875 259.2 14.5 256 11.8
2004-02-25 08:21:04 51°10.785 2°41.844 259.1 14.6 254 11.8
2004-02-25 08:21:10 51°10.779 2°41.807 259.6 14.6 255 11.7
2004-02-25 08:21:14 51°10.774 2°41.783 259.3 14.3 254 11.8
2004-02-25 08:21:19 51°10.769 2°41.752 258.5 14.5 255 11.6
2004-02-25 08:21:24 51°10.763 2°41.72 258.3 14.6 254 11.7
2004-02-25 08:21:29 51°10.758 2°41.689 258.6 14.7 254 11.9
2004-02-25 08:21:34 51°10.753 2°41.658 260.1 14.4 254 11.9
2004-02-25 08:21:40 51°10.747 2°41.622 259.1 14.4 254 12
2004-02-25 08:21:44 51°10.743 2°41.597 259.8 14.4 255 12
2004-02-25 08:21:50 51°10.736 2°41.56 258.7 14.5 253 12
2004-02-25 08:21:54 51°10.732 2°41.535 259.8 14.5 256 12
2004-02-25 08:21:58 51°10.728 2°41.51 259.5 14.5 256 12
2004-02-25 08:22:04 51°10.722 2°41.473 259.6 14.5 257 11.9
2004-02-25 08:22:09 51°10.717 2°41.442 259.9 14.5 255 11.9
2004-02-25 08:22:14 51°10.712 2°41.411 259.7 14.6 254 12
2004-02-25 08:22:19 51°10.706 2°41.38 259.3 14.7 254 11.9
2004-02-25 08:22:24 51°10.701 2°41.349 259.1 14.7 256 11.8
2004-02-25 08:22:28 51°10.696 2°41.324 258.4 14.8 254 11.8
2004-02-25 08:22:34 51°10.691 2°41.286 259.4 14.4 256 11.8
2004-02-25 08:22:39 51°10.685 2°41.256 259.7 14.4 253 11.8
2004-02-25 08:22:44 51°10.68 2°41.225 259.3 14.5 257 11.8
2004-02-25 08:22:50 51°10.674 2°41.188 260.1 14.4 255 11.8
2004-02-25 08:22:54 51°10.67 2°41.163 259.2 14.6 255 11.7
2004-02-25 08:22:59 51°10.664 2°41.132 259.8 14.7 255 11.8
2004-02-25 08:23:04 51°10.659 2°41.1 259.1 14.7 255 11.8
2004-02-25 08:23:10 51°10.653 2°41.063 260.7 14.7 256 11.9
2004-02-25 08:23:14 51°10.649 2°41.038 260.1 14.7 254 11.9
2004-02-25 08:23:19 51°10.644 2°41.007 260.5 14.6 256 11.7
2004-02-25 08:23:24 51°10.639 2°40.975 260.3 14.6 254 11.9
2004-02-25 08:23:28 51°10.635 2°40.951 260.3 14.6 257 11.8
2004-02-25 08:23:34 51°10.629 2°40.913 259.6 14.6 256 11.8
2004-02-25 08:23:39 51°10.624 2°40.882 259.5 14.6 255 11.9
2004-02-25 08:23:44 51°10.618 2°40.851 260.3 14.5 255 11.9
2004-02-25 08:23:48 51°10.614 2°40.826 259.3 14.6 257 11.9
2004-02-25 08:23:54 51°10.608 2°40.789 260 14.7 254 12
2004-02-25 08:23:59 51°10.603 2°40.758 259.6 14.6 255 12
2004-02-25 08:24:04 51°10.597 2°40.727 259.1 14.6 254 12.1
2004-02-25 08:24:08 51°10.593 2°40.702 259.1 14.6 254 12
2004-02-25 08:24:14 51°10.586 2°40.665 259.3 14.6 255 11.9
2004-02-25 08:24:19 51°10.581 2°40.634 258.7 14.6 254 12
2004-02-25 08:24:24 51°10.575 2°40.602 258.9 14.6 254 12
2004-02-25 08:24:30 51°10.569 2°40.565 260 14.6 255 12.1
2004-02-25 08:24:34 51°10.564 2°40.541 259.4 14.6 253 12.2
2004-02-25 08:24:39 51°10.559 2°40.509 258.7 14.6 256 12.3
2004-02-25 08:24:44 51°10.554 2°40.479 259.6 14.6 256 12.4
2004-02-25 08:24:48 51°10.55 2°40.454 259.3 14.6 256 12.5
2004-02-25 08:24:54 51°10.543 2°40.416 259.4 14.7 254 12.6
2004-02-25 08:24:59 51°10.538 2°40.385 259.6 14.6 256 12.6
2004-02-25 08:25:04 51°10.533 2°40.354 260 14.4 255 12.6
2004-02-25 08:25:10 51°10.526 2°40.317 259.3 14.5 256 12.6
2004-02-25 08:25:14 51°10.523 2°40.292 259.3 14.6 256 12.6
2004-02-25 08:25:19 51°10.517 2°40.261 259.8 14.7 253 12.7
2004-02-25 08:25:24 51°10.512 2°40.229 258.7 14.7 256 12.7
2004-02-25 08:25:28 51°10.507 2°40.205 259.4 14.6 254 12.8
2004-02-25 08:25:34 51°10.501 2°40.167 258.6 14.6 254 12.7
2004-02-25 08:25:39 51°10.496 2°40.137 259.8 14.4 256 12.8
2004-02-25 08:25:44 51°10.49 2°40.106 259.5 14.4 255 12.7
2004-02-25 08:25:50 51°10.484 2°40.068 259.2 14.5 255 12.8
2004-02-25 08:25:54 51°10.479 2°40.044 259.7 14.6 253 12.8
2004-02-25 08:25:59 51°10.474 2°40.012 259.3 14.7 257 12.8
2004-02-25 08:26:04 51°10.468 2°39.981 259.2 14.6 252 13.1
2004-02-25 08:26:08 51°10.464 2°39.957 258.7 14.5 256 13
2004-02-25 08:26:14 51°10.457 2°39.92 258.3 14.6 253 13
2004-02-25 08:26:19 51°10.452 2°39.888 258.4 14.7 255 13.2
2004-02-25 08:26:24 51°10.446 2°39.858 259.1 14.7 253 13.3
2004-02-25 08:26:28 51°10.442 2°39.833 259.6 14.5 256 13.3
2004-02-25 08:26:34 51°10.436 2°39.795 258.9 14.7 254 13.3
2004-02-25 08:26:39 51°10.431 2°39.764 260.4 14.7 256 13.2
2004-02-25 08:26:44 51°10.425 2°39.732 259.4 14.8 253 13.4
2004-02-25 08:26:50 51°10.418 2°39.695 260.5 14.7 256 13.5
2004-02-25 08:26:54 51°10.415 2°39.67 259.3 14.5 257 13.4
2004-02-25 08:26:59 51°10.409 2°39.639 259.7 14.5 254 13.4
2004-02-25 08:27:04 51°10.404 2°39.607 258.9 14.7 253 13.6
2004-02-25 08:27:10 51°10.398 2°39.57 259.6 14.6 255 13.7
2004-02-25 08:27:14 51°10.394 2°39.545 259.1 14.6 256 13.9
2004-02-25 08:27:19 51°10.388 2°39.514 259.8 14.7 254 13.9
2004-02-25 08:27:24 51°10.383 2°39.483 259.7 14.6 256 13.7
2004-02-25 08:27:30 51°10.377 2°39.445 259.1 14.5 255 13.9
2004-02-25 08:27:34 51°10.373 2°39.42 258.8 14.5 256 14
2004-02-25 08:27:39 51°10.367 2°39.39 258.8 14.6 253 13.8
2004-02-25 08:27:44 51°10.363 2°39.359 260 14.3 257 13.8
2004-02-25 08:27:49 51°10.356 2°39.329 258.5 14.3 252 13.8
2004-02-25 08:27:54 51°10.352 2°39.298 257.4 14.6 257 14
2004-02-25 08:27:59 51°10.346 2°39.267 259.5 14.3 255 14.3
2004-02-25 08:28:04 51°10.341 2°39.237 258.6 14.4 254 14.5
2004-02-25 08:28:08 51°10.337 2°39.212 258.4 14.5 255 14.4
2004-02-25 08:28:14 51°10.331 2°39.175 259.2 14.3 253 14.5
2004-02-25 08:28:19 51°10.326 2°39.144 258.7 14.4 255 14.6
2004-02-25 08:28:24 51°10.32 2°39.114 259.3 14.2 256 14.7
2004-02-25 08:28:30 51°10.314 2°39.077 258.9 14.3 255 14.7
2004-02-25 08:28:34 51°10.31 2°39.053 259.4 14.2 254 14.9
2004-02-25 08:28:39 51°10.304 2°39.023 259.8 14.3 254 14.6
2004-02-25 08:28:44 51°10.299 2°38.992 258.3 14.4 255 14.8
2004-02-25 08:28:49 51°10.294 2°38.961 259.7 14.3 255 14.6
2004-02-25 08:28:54 51°10.289 2°38.931 259.6 14.4 254 14.6
2004-02-25 08:28:59 51°10.284 2°38.898 259.4 14.3 256 14.7
2004-02-25 08:29:04 51°10.278 2°38.868 258.6 14.3 253 14.7
2004-02-25 08:29:10 51°10.272 2°38.832 259 14.3 256 14.9
2004-02-25 08:29:14 51°10.267 2°38.808 259.7 14.4 252 15.2
2004-02-25 08:29:19 51°10.263 2°38.777 259.3 14.3 257 15.1
2004-02-25 08:29:24 51°10.257 2°38.747 259.4 14.4 253 15
2004-02-25 08:29:28 51°10.254 2°38.722 259.4 14.4 256 15
2004-02-25 08:29:34 51°10.248 2°38.686 260 14.2 255 15.3
2004-02-25 08:29:39 51°10.243 2°38.655 260.2 14.2 256 15.4
2004-02-25 08:29:44 51°10.238 2°38.625 259.7 14.3 255 15
2004-02-25 08:29:50 51°10.231 2°38.589 259.8 14.3 256 14.9
2004-02-25 08:29:54 51°10.226 2°38.565 258.7 14.3 253 15.4
2004-02-25 08:29:58 51°10.223 2°38.54 258 14.3 253 14.8
2004-02-25 08:30:04 51°10.216 2°38.504 258.9 14.2 254 14.9
2004-02-25 08:30:10 51°10.21 2°38.467 258.3 14.5 254 15.3
2004-02-25 08:30:14 51°10.205 2°38.443 259.6 14.3 254 15
2004-02-25 08:30:19 51°10.2 2°38.413 259.3 14 255 14.6
2004-02-25 08:30:24 51°10.194 2°38.383 258 14.1 253 14.9
2004-02-25 08:30:29 51°10.19 2°38.352 259.6 14.3 257 14.8
2004-02-25 08:30:34 51°10.184 2°38.322 259.1 14.3 253 15
2004-02-25 08:30:38 51°10.18 2°38.297 258.5 14.3 253 15
2004-02-25 08:30:44 51°10.174 2°38.26 259.8 14.5 254 15.2
2004-02-25 08:30:48 51°10.17 2°38.236 259.9 14.3 256 15.5
2004-02-25 08:30:54 51°10.164 2°38.199 258.5 14.5 254 15.5
2004-02-25 08:30:58 51°10.16 2°38.174 259.1 14.5 254 15.8
2004-02-25 08:31:04 51°10.153 2°38.136 259.7 14.6 255 16
2004-02-25 08:31:08 51°10.15 2°38.111 259.8 14.5 258 15.9
2004-02-25 08:31:14 51°10.143 2°38.075 259.8 14.2 254 15.6
2004-02-25 08:31:18 51°10.139 2°38.05 258.5 14.2 254 15.9
2004-02-25 08:31:24 51°10.133 2°38.013 259.6 14.6 257 15.5
2004-02-25 08:31:28 51°10.129 2°37.988 259.2 14.5 256 15.6
2004-02-25 08:31:34 51°10.124 2°37.95 259.1 14.6 257 15.8
2004-02-25 08:31:39 51°10.118 2°37.919 259.5 14.6 255 16
2004-02-25 08:31:44 51°10.114 2°37.888 260.3 14.5 258 16
2004-02-25 08:31:50 51°10.107 2°37.851 258.7 14.5 256 16.1
2004-02-25 08:31:54 51°10.104 2°37.825 259.3 14.7 259 16.1
2004-02-25 08:31:59 51°10.099 2°37.794 261.3 14.6 256 16.1
2004-02-25 08:32:04 51°10.095 2°37.763 259.8 14.5 256 16.4
2004-02-25 08:32:10 51°10.089 2°37.726 259.1 14.5 256 16.5
2004-02-25 08:32:14 51°10.084 2°37.701 259.7 14.6 256 16.6
2004-02-25 08:32:19 51°10.079 2°37.67 259.8 14.6 255 16.7
2004-02-25 08:32:24 51°10.074 2°37.638 258.8 14.7 254 16.5
2004-02-25 08:32:28 51°10.07 2°37.613 258.6 14.7 255 16.7
2004-02-25 08:32:34 51°10.064 2°37.576 259.1 14.4 256 16.6
2004-02-25 08:32:39 51°10.058 2°37.545 258.2 14.8 254 16.7
2004-02-25 08:32:44 51°10.053 2°37.514 259.8 14.7 257 16.6
2004-02-25 08:32:50 51°10.047 2°37.476 259 14.6 253 16.8
2004-02-25 08:32:54 51°10.043 2°37.451 259 14.7 255 16.7
2004-02-25 08:32:59 51°10.037 2°37.42 259.3 14.6 252 17
2004-02-25 08:33:04 51°10.033 2°37.389 259.2 14.5 257 16.8
2004-02-25 08:33:10 51°10.026 2°37.353 258.7 14.4 253 16.7
2004-02-25 08:33:14 51°10.022 2°37.328 258.3 14.4 256 16.7
2004-02-25 08:33:19 51°10.016 2°37.297 258.8 14.4 254 16.8
2004-02-25 08:33:24 51°10.012 2°37.266 259.6 14.5 257 16.9
2004-02-25 08:33:28 51°10.007 2°37.241 259.4 14.6 255 16.8
2004-02-25 08:33:34 51°10.001 2°37.204 259.8 14.7 256 16.9
2004-02-25 08:33:39 51°9.997 2°37.172 259.8 14.5 257 16.9
2004-02-25 08:33:44 51°9.991 2°37.142 259.7 14.4 256 17
2004-02-25 08:33:48 51°9.988 2°37.117 260.2 14.4 258 17.2
2004-02-25 08:33:54 51°9.984 2°37.079 262.7 14.3 259 16.8
2004-02-25 08:33:58 51°9.982 2°37.054 264.2 14.4 261 16.8
2004-02-25 08:34:04 51°9.978 2°37.016 265.8 14.4 263 16.8
2004-02-25 08:34:08 51°9.977 2°36.991 267.3 14.4 266 16.8
2004-02-25 08:34:14 51°9.975 2°36.953 269.3 14.4 264 16.7
2004-02-25 08:34:19 51°9.973 2°36.921 270 14.4 266 16.8
2004-02-25 08:34:24 51°9.972 2°36.889 270.5 14.5 266 16.7
2004-02-25 08:34:30 51°9.972 2°36.851 271.8 14.4 269 16.8
2004-02-25 08:34:34 51°9.972 2°36.826 273.8 14.2 269 16.7
2004-02-25 08:34:38 51°9.972 2°36.801 275.2 14.3 270 17
2004-02-25 08:34:44 51°9.973 2°36.763 276.4 14.3 272 17.1
2004-02-25 08:34:48 51°9.974 2°36.737 277.2 14.5 272 17.3
2004-02-25 08:34:54 51°9.975 2°36.699 278.3 14.5 273 16.9
2004-02-25 08:34:58 51°9.976 2°36.674 279 14.5 273 17.2
2004-02-25 08:35:04 51°9.977 2°36.636 278.7 14.3 273 17.2
2004-02-25 08:35:10 51°9.979 2°36.598 279.2 14.4 274 17
2004-02-25 08:35:14 51°9.98 2°36.573 279.2 14.4 273 17.1
2004-02-25 08:35:18 51°9.981 2°36.547 278.4 14.4 273 17.2
2004-02-25 08:35:24 51°9.982 2°36.509 279.1 14.4 274 16.9
2004-02-25 08:35:28 51°9.983 2°36.483 279.5 14.5 273 17.3
2004-02-25 08:35:34 51°9.985 2°36.445 279.1 14.5 274 17.2
2004-02-25 08:35:40 51°9.987 2°36.407 279.4 14.5 275 17
2004-02-25 08:35:44 51°9.988 2°36.381 279.1 14.5 273 17
2004-02-25 08:35:49 51°9.988 2°36.35 279.1 14.4 271 16.9
2004-02-25 08:35:54 51°9.989 2°36.318 277.4 14.5 274 17.1
2004-02-25 08:35:59 51°9.99 2°36.286 278 14.4 272 17
2004-02-25 08:36:04 51°9.991 2°36.254 277.8 14.4 272 17.3
2004-02-25 08:36:10 51°9.992 2°36.216 278 14.4 272 17.3
2004-02-25 08:36:14 51°9.993 2°36.19 278.1 14.5 275 17.2
2004-02-25 08:36:18 51°9.996 2°36.165 281.8 14.4 276 17.5
2004-02-25 08:36:24 51°10.001 2°36.129 285.9 14.2 283 17.2
2004-02-25 08:36:30 51°10.007 2°36.093 288.5 14.2 284 17.2
2004-02-25 08:36:34 51°10.012 2°36.069 291.7 14.1 289 17
2004-02-25 08:36:39 51°10.019 2°36.04 295.9 14 291 16.8
2004-02-25 08:36:44 51°10.027 2°36.012 299.7 13.9 294 16.8
2004-02-25 08:36:48 51°10.034 2°35.99 302.3 13.9 295 16.8
2004-02-25 08:36:54 51°10.045 2°35.958 304.1 13.9 299 16.4
2004-02-25 08:36:59 51°10.055 2°35.931 306.8 13.9 301 16
2004-02-25 08:37:04 51°10.066 2°35.906 309.5 13.9 303 15.8
2004-02-25 08:37:10 51°10.081 2°35.878 313.5 13.9 308 15.3
2004-02-25 08:37:14 51°10.091 2°35.86 317 13.7 312 14.6
2004-02-25 08:37:19 51°10.104 2°35.839 320.9 13.7 315 13.9
2004-02-25 08:37:24 51°10.118 2°35.819 324 13.5 317 13.2
2004-02-25 08:37:28 51°10.13 2°35.805 328.5 13.4 320 12.2
2004-02-25 08:37:34 51°10.148 2°35.785 331.8 13.2 327 11.4
2004-02-25 08:37:39 51°10.164 2°35.77 335.3 13.2 328 11
2004-02-25 08:37:44 51°10.18 2°35.758 338.8 13.1 332 10.3
2004-02-25 08:37:50 51°10.2 2°35.744 342.1 12.9 335 10.1
2004-02-25 08:37:54 51°10.213 2°35.735 345 12.8 337 9.9
2004-02-25 08:37:58 51°10.227 2°35.727 346.7 12.8 337 9.9
2004-02-25 08:38:04 51°10.246 2°35.715 348.2 12.9 340 9.9
2004-02-25 08:38:08 51°10.26 2°35.708 348.9 13 342 10.1
2004-02-25 08:38:14 51°10.281 2°35.7 350.6 12.9 347 9.9
2004-02-25 08:38:19 51°10.299 2°35.694 354.1 13 347 10.2
2004-02-25 08:38:24 51°10.316 2°35.69 356.8 12.9 351 9.9
2004-02-25 08:38:30 51°10.337 2°35.685 358.5 12.7 352 10.2
2004-02-25 08:38:34 51°10.351 2°35.684 0.7 12.7 355 10.4
2004-02-25 08:38:39 51°10.369 2°35.684 4.5 12.8 359 10.4
2004-02-25 08:38:44 51°10.387 2°35.684 6.5 12.8   10.3
2004-02-25 08:38:48 51°10.401 2°35.685 8.3 12.7 3 10.3
2004-02-25 08:38:54 51°10.422 2°35.688 9.8 12.8 4 10.3
2004-02-25 08:38:58 51°10.436 2°35.691 12.1 12.6 5 9.9
2004-02-25 08:39:04 51°10.456 2°35.697 15.5 12.5 10 9.7
2004-02-25 08:39:08 51°10.47 2°35.702 17.7 12.6 12 9.8
2004-02-25 08:39:14 51°10.49 2°35.71 19.5 12.5 14 9.8
2004-02-25 08:39:19 51°10.507 2°35.717 21 12.4 15 9.7
2004-02-25 08:39:24 51°10.524 2°35.725 21.8 12.5 16 9.7
2004-02-25 08:39:28 51°10.537 2°35.731 22.4 12.6 16 9.6
2004-02-25 08:39:34 51°10.557 2°35.741 22.9 12.7 17 9.3
2004-02-25 08:39:39 51°10.574 2°35.748 23.2 12.7 16 9.6
2004-02-25 08:39:44 51°10.591 2°35.757 23.1 12.6 16 9.6
2004-02-25 08:39:48 51°10.604 2°35.765 24.1 12.4 18 9.3
2004-02-25 08:39:54 51°10.623 2°35.777 26.7 12.6 23 9.4
2004-02-25 08:39:58 51°10.636 2°35.787 28.7 12.6 23 9.7
2004-02-25 08:40:04 51°10.655 2°35.801 29.9 12.8 25 9.8
2004-02-25 08:40:09 51°10.671 2°35.813 30.4 12.7 25 9.9
2004-02-25 08:40:14 51°10.687 2°35.826 31.7 12.7 27 10
2004-02-25 08:40:19 51°10.703 2°35.837 31.9 12.7 27 9.9
2004-02-25 08:40:24 51°10.718 2°35.85 33 12.5 26 9.5
2004-02-25 08:40:30 51°10.736 2°35.865 32.9 12.4 25 9.7
2004-02-25 08:40:34 51°10.749 2°35.874 33.6 12.6 27 10
2004-02-25 08:40:39 51°10.764 2°35.888 33.3 12.5 28 9.8
2004-02-25 08:40:44 51°10.78 2°35.899 33.7 12.6 26 9.7
2004-02-25 08:40:50 51°10.799 2°35.914 32.9 12.6 26 10
2004-02-25 08:40:54 51°10.811 2°35.924 32.6 12.5 26 9.8
2004-02-25 08:40:59 51°10.827 2°35.937 33.4 12.6 27 9.9
2004-02-25 08:41:04 51°10.842 2°35.949 33.9 12.7 27 10.1
2004-02-25 08:41:08 51°10.855 2°35.96 33.5 12.7 28 10.1
2004-02-25 08:41:14 51°10.873 2°35.976 34.8 12.6 30 10
2004-02-25 08:41:19 51°10.888 2°35.99 35.5 12.5 29 10
2004-02-25 08:41:24 51°10.903 2°36.004 36.5 12.5 31 9.9
2004-02-25 08:41:30 51°10.921 2°36.022 37.4 12.6 32 10
2004-02-25 08:41:34 51°10.933 2°36.033 37.3 12.6 32 10
2004-02-25 08:41:39 51°10.948 2°36.049 38.1 12.6 33 9.9
2004-02-25 08:41:44 51°10.963 2°36.063 38.4 12.5 32 10.2
2004-02-25 08:41:48 51°10.974 2°36.076 38.6 12.6 33 10
2004-02-25 08:41:54 51°10.992 2°36.093 38 12.6 31 10.1
2004-02-25 08:41:59 51°11.007 2°36.108 39.1 12.6 34 10.1
2004-02-25 08:42:04 51°11.022 2°36.122 38.3 12.6 30 10.1
2004-02-25 08:42:10 51°11.04 2°36.14 38.8 12.7 33 10
2004-02-25 08:42:14 51°11.052 2°36.152 38.2 12.7 32 10.1
2004-02-25 08:42:18 51°11.064 2°36.165 38.4 12.7 32 10.2
2004-02-25 08:42:24 51°11.082 2°36.182 38.3 12.6 31 10.1
2004-02-25 08:42:28 51°11.093 2°36.194 39.1 12.6 33 10.1
2004-02-25 08:42:34 51°11.111 2°36.211 38.6 12.7 32 10.2
2004-02-25 08:42:39 51°11.126 2°36.225 38.1 12.5 32 10.3
2004-02-25 08:42:44 51°11.141 2°36.24 38.3 12.4 31 10
2004-02-25 08:42:48 51°11.153 2°36.251 38.1 12.6 31 10.3
2004-02-25 08:42:54 51°11.17 2°36.268 37.7 12.5 31 9.9
2004-02-25 08:42:59 51°11.185 2°36.283 38.1 12.5 32 10.3
2004-02-25 08:43:04 51°11.2 2°36.297 38.2 12.6 30 10.1
2004-02-25 08:43:08 51°11.212 2°36.309 38.4 12.6 32 10.3
2004-02-25 08:43:14 51°11.23 2°36.327 38.4 12.5 32 10.2
2004-02-25 08:43:20 51°11.248 2°36.344 38.1 12.5 32 10.4
2004-02-25 08:43:24 51°11.26 2°36.355 38 12.6 31 10.3
2004-02-25 08:43:29 51°11.275 2°36.37 38.3 12.6 32 10.4
2004-02-25 08:43:34 51°11.289 2°36.384 37.6 12.3 32 10.3
2004-02-25 08:43:38 51°11.301 2°36.396 38.4 12.3 32 10.2
2004-02-25 08:43:44 51°11.318 2°36.413 38.3 12.4 30 10.2
2004-02-25 08:43:50 51°11.336 2°36.431 39.1 12.5 33 10.3
2004-02-25 08:43:54 51°11.348 2°36.442 38.6 12.5 31 10
2004-02-25 08:43:59 51°11.362 2°36.457 38.4 12.5 33 10.2
2004-02-25 08:44:04 51°11.378 2°36.47 38.4 12.6 30 10.1
2004-02-25 08:44:10 51°11.395 2°36.488 38.1 12.5 31 10.3
2004-02-25 08:44:14 51°11.407 2°36.5 38.4 12.5 32 10.2
2004-02-25 08:44:19 51°11.422 2°36.514 39 12.6 31 10.3
2004-02-25 08:44:24 51°11.437 2°36.529 38.6 12.6 32 10.2
2004-02-25 08:44:28 51°11.449 2°36.54 38.8 12.5 31 10.3
2004-02-25 08:44:34 51°11.467 2°36.558 38.4 12.7 31 10.3
2004-02-25 08:44:39 51°11.481 2°36.572 37.5 12.5 31 10.6
2004-02-25 08:44:44 51°11.496 2°36.587 37.8 12.5 33 10.5
2004-02-25 08:44:50 51°11.514 2°36.604 39.3 12.6 32 10.6
2004-02-25 08:44:54 51°11.525 2°36.617 38.4 12.5 33 10.4
2004-02-25 08:44:59 51°11.54 2°36.631 39.2 12.6 32 10.3
2004-02-25 08:45:04 51°11.555 2°36.646 39.1 12.6 32 10.4
2004-02-25 08:45:09 51°11.57 2°36.661 37.6 12.7 31 10.1
2004-02-25 08:45:14 51°11.585 2°36.675 38.3 12.7 32 10.1
2004-02-25 08:45:18 51°11.597 2°36.687 37.7 12.5 33 10.2
2004-02-25 08:45:24 51°11.614 2°36.705 39.1 12.5 34 10.3
2004-02-25 08:45:30 51°11.632 2°36.723 38.8 12.6 31 10.4
2004-02-25 08:45:34 51°11.644 2°36.735 38.7 12.6 32 9.9
2004-02-25 08:45:39 51°11.659 2°36.75 38.4 12.7 32 10.2
2004-02-25 08:45:44 51°11.674 2°36.765 38.4 12.7 32 10.3
2004-02-25 08:45:50 51°11.691 2°36.782 38.2 12.7 32 10.2
2004-02-25 08:45:54 51°11.703 2°36.794 37.9 12.5 32 10.2
2004-02-25 08:45:59 51°11.718 2°36.808 38.7 12.5 32 9.9
2004-02-25 08:46:04 51°11.733 2°36.824 38.1 12.6 34 10.3
2004-02-25 08:46:10 51°11.751 2°36.84 39.1 12.6 31 10.2
2004-02-25 08:46:14 51°11.762 2°36.853 38.2 12.6 33 10.3
2004-02-25 08:46:19 51°11.778 2°36.867 38.2 12.6 31 10.2
2004-02-25 08:46:24 51°11.793 2°36.881 38 12.7 32 10.4
2004-02-25 08:46:30 51°11.811 2°36.899 38 12.7 31 10.2
2004-02-25 08:46:34 51°11.823 2°36.91 37.9 12.6 32 10.2
2004-02-25 08:46:39 51°11.838 2°36.925 38.8 12.7 32 10.1
2004-02-25 08:46:44 51°11.852 2°36.94 38.2 12.7 32 10.2
2004-02-25 08:46:50 51°11.87 2°36.957 38.9 12.5 32 10.2
2004-02-25 08:46:54 51°11.881 2°36.969 39.2 12.4 32 10.3
2004-02-25 08:46:59 51°11.896 2°36.983 38.7 12.4 31 9.9
2004-02-25 08:47:04 51°11.911 2°36.998 38.1 12.5 32 10.3
2004-02-25 08:47:10 51°11.929 2°37.015 37.3 12.6 30 10.1
2004-02-25 08:47:14 51°11.94 2°37.026 38.4 12.5 32 10.1
2004-02-25 08:47:19 51°11.955 2°37.041 38.3 12.5 31 10
2004-02-25 08:47:24 51°11.97 2°37.055 38.4 12.5 32 10.1
2004-02-25 08:47:28 51°11.982 2°37.067 38.4 12.6 31 10.2
2004-02-25 08:47:34 51°12 2°37.084 38.5 12.4 31 10
2004-02-25 08:47:39 51°12.014 2°37.099 38.5 12.5 32 10.1
2004-02-25 08:47:44 51°12.029 2°37.113 38.5 12.6 32 10
2004-02-25 08:47:50 51°12.047 2°37.13 38.1 12.6 30 10.1
2004-02-25 08:47:54 51°12.059 2°37.141 37.4 12.6 31 10.1
2004-02-25 08:47:58 51°12.071 2°37.153 38 12.5 32 10.2
2004-02-25 08:48:04 51°12.089 2°37.17 38.2 12.5 31 10.4
2004-02-25 08:48:08 51°12.1 2°37.181 38.6 12.3 32 10.2
2004-02-25 08:48:14 51°12.118 2°37.199 38.4 12.4 33 10.4
2004-02-25 08:48:19 51°12.132 2°37.213 39.3 12.5 32 10.4
2004-02-25 08:48:24 51°12.147 2°37.228 39.1 12.6 33 10
2004-02-25 08:48:30 51°12.165 2°37.245 38.4 12.5 31 10.3
2004-02-25 08:48:34 51°12.176 2°37.257 38.8 12.5 32 10
2004-02-25 08:48:39 51°12.191 2°37.271 38.5 12.5 31 10.1
2004-02-25 08:48:44 51°12.206 2°37.286 38.4 12.3 32 10.4
2004-02-25 08:48:50 51°12.223 2°37.303 38.2 12.5 31 10.4
2004-02-25 08:48:54 51°12.235 2°37.314 38.1 12.5 31 10.1
2004-02-25 08:48:59 51°12.249 2°37.329 39.1 12.3 32 10.3
2004-02-25 08:49:04 51°12.264 2°37.343 38.5 12.3 30 10.3
2004-02-25 08:49:10 51°12.281 2°37.36 38.6 12.2 34 10.5
2004-02-25 08:49:14 51°12.293 2°37.372 38.4 12.3 33 10.4
2004-02-25 08:49:19 51°12.307 2°37.386 38.8 12.3 31 10.3
2004-02-25 08:49:24 51°12.322 2°37.4 38.5 12.4 32 10.6
2004-02-25 08:49:30 51°12.339 2°37.417 37.7 12.5 30 10.6
2004-02-25 08:49:34 51°12.351 2°37.429 38.1 12.4 32 11
2004-02-25 08:49:39 51°12.366 2°37.442 38.1 12.5 30 10.9
2004-02-25 08:49:44 51°12.381 2°37.456 37.5 12.5 30 10.8
2004-02-25 08:49:49 51°12.396 2°37.471 37.8 12.5 31 10.7
2004-02-25 08:49:54 51°12.41 2°37.485 38.1 12.3 31 11
2004-02-25 08:49:59 51°12.424 2°37.499 38.3 12.2 32 10.6
2004-02-25 08:50:04 51°12.439 2°37.514 38.3 12.1 31 10.6
2004-02-25 08:50:08 51°12.451 2°37.526 38.5 12.2 33 10.9
2004-02-25 08:50:14 51°12.468 2°37.542 38.9 12.3 31 10.9
2004-02-25 08:50:19 51°12.483 2°37.557 38.3 12.3 32 10.9
2004-02-25 08:50:24 51°12.497 2°37.57 38 12.3 31 10.9
2004-02-25 08:50:28 51°12.509 2°37.582 38.4 12.2 31 11.2
2004-02-25 08:50:34 51°12.526 2°37.599 38.4 12.3 32 11.2
2004-02-25 08:50:39 51°12.541 2°37.613 38.4 12.3 30 11.2
2004-02-25 08:50:44 51°12.555 2°37.628 38.3 12.3 30 11.3
2004-02-25 08:50:49 51°12.57 2°37.641 37.5 12.3 30 10.9
2004-02-25 08:50:54 51°12.585 2°37.655 37.6 12.4 30 11.4
2004-02-25 08:50:59 51°12.6 2°37.668 37.1 12.5 30 11.5
2004-02-25 08:51:04 51°12.615 2°37.682 37 12.6 31 11.1
2004-02-25 08:51:10 51°12.633 2°37.699 36 12.5 27 11.6
2004-02-25 08:51:14 51°12.645 2°37.71 36.1 12.3 31 11.7
2004-02-25 08:51:19 51°12.66 2°37.723 36.2 12.4 29 11.5
2004-02-25 08:51:24 51°12.675 2°37.737 36 12.5 30 11.6
2004-02-25 08:51:28 51°12.688 2°37.746 35.4 12.6 29 11.6
2004-02-25 08:51:34 51°12.706 2°37.763 35.8 12.5 30 11.4
2004-02-25 08:51:38 51°12.718 2°37.773 35.9 12.5 30 11.7
2004-02-25 08:51:44 51°12.736 2°37.789 35.4 12.4 30 11.9
2004-02-25 08:51:50 51°12.755 2°37.805 36 12.6 29 11.8
2004-02-25 08:51:54 51°12.767 2°37.817 36.4 12.7 30 11.8
2004-02-25 08:51:58 51°12.779 2°37.827 36.3 12.7 30 12
2004-02-25 08:52:04 51°12.796 2°37.845 37.5 12.4 32 11.7
2004-02-25 08:52:09 51°12.81 2°37.859 38.1 12.4 32 11.7
2004-02-25 08:52:14 51°12.825 2°37.874 38.9 12.4 31 12
2004-02-25 08:52:19 51°12.84 2°37.888 38.6 12.4 32 11.9
2004-02-25 08:52:24 51°12.855 2°37.902 38.3 12.5 30 12
2004-02-25 08:52:28 51°12.867 2°37.914 38.2 12.6 32 11.9
2004-02-25 08:52:34 51°12.885 2°37.93 37.7 12.5 32 12.1
2004-02-25 08:52:39 51°12.9 2°37.944 38.1 12.4 32 12.2
2004-02-25 08:52:44 51°12.913 2°37.959 38.3 12.1 32 12.1
2004-02-25 08:52:48 51°12.925 2°37.97 38 11.9 33 12.4
2004-02-25 08:52:54 51°12.942 2°37.987 39.7 12.2 30 12.2
2004-02-25 08:52:59 51°12.957 2°38.001 38.5 12.3 30 12.4
2004-02-25 08:53:04 51°12.971 2°38.015 37.7 12.1 31 12.7
2004-02-25 08:53:08 51°12.983 2°38.027 38.6 12.1 33 12.6
2004-02-25 08:53:14 51°13.001 2°38.044 37.6 12.4 32 12.8
2004-02-25 08:53:18 51°13.012 2°38.055 38 12.4 32 12.8
2004-02-25 08:53:24 51°13.03 2°38.072 37.8 12.4 30 12.6
2004-02-25 08:53:29 51°13.044 2°38.086 38.2 12.4 33 12.7
2004-02-25 08:53:34 51°13.06 2°38.1 38.5 12.5 29 12.9
2004-02-25 08:53:39 51°13.074 2°38.113 37.2 12.2 30 12.7
2004-02-25 08:53:44 51°13.088 2°38.129 38.2 12.3 32 12.8
2004-02-25 08:53:48 51°13.101 2°38.138 37.7 12.5 28 12.8
2004-02-25 08:53:54 51°13.119 2°38.156 37.3 12.6 31 12.8
2004-02-25 08:53:58 51°13.131 2°38.167 37.7 12.6 31 12.9